SCP
0 0 0 0 0 0 0 0 0 0 0 0 0 0 0 0 0 0 0 0 0 0 0 0 0 0 0 0 0 0 0 0 0 0 0 0 0 0 0 0 0 0 0
0 0 0 0 0 0 0 0 0 0 0 0 0 0 0 0 0 0 0 0 0 0 0 0 0 0 0 0 0 0 0 0 0 0 0 0 0 0 0 0 0 0 0
0 0 0 0 0 0 0 0 0 0 0 0 0 0 0 0 0 0 0 0 0 0 0 0 0 0 0 0 0 0 0 0 0 0 0 0 0 0 0 0 0 0 0
0 0 0 0 0 0 0 0 0 0 0 0 0 0 0 0 0 0 0 0 0 0 0 0 0 0 0 0 0 0 0 0 0 0 0 0 0 0 0 0 0 0 0
0 0 0 0 0 0 0 0 0 0 0 0 0 0 0 0 0 0 0 0 0 0 0 0 0 0 0 0 0 0 0 0 0 0 0 0 0 0 0 0 0 0 0
0 0 0 0 0 0 0 0 0 0 0 0 0 0 0 0 0 0 0 0 0 0 0 0 0 0 0 0 0 0 0 0 0 0 0 0 0 0 0 0 0 0 0
0 0 0 0 0 0 0 0 0 0 0 0 0 0 0 0 0 0 0 0 0 0 0 0 0 0 0 0 0 0 0 0 0 0 0 0 0 0 0 0 0 0 0
0 0 0 0 0 0 0 0 0 0 0 0 0 0 0 0 0 0 0 0 0 0 0 0 0 0 0 0 0 0 0 0 0 0 0 0 0 0 0 0 0 0 0
0 0 0 0 0 0 0 0 0 0 0 0 0 0 0 0 0 0 0 0 0 0 0 0 0 0 0 0 0 0 0 0 0 0 0 0 0 0 0 0 0 0 0
0 0 0 0 0 0 0 0 0 0 0 0 0 0 0 0 0 0 0 0 0 0 0 0 0 0 0 0 0 0 0 0 0 0 0 0 0 0 0 0 0 0 0
0 0 0 0 0 0 0 0 0 0 0 0 0 0 0 0 0 0 0 0 0 0 0 0 0 0 0 0 0 0 0 0 0 0 0 0 0 0 0 0 0 0 0
0 0 0 0 0 0 0 0 0 0 0 0 0 0 0 0 0 0 0 0 0 0 0 0 0 0 0 0 0 0 0 0 0 0 0 0 0 0 0 0 0 0 0
0 0 0 0 0 0 0 0 0 0 0 0 0 0 0 0 0 0 0 0 0 0 0 0 0 0 0 0 0 0 0 0 0 0 0 0 0 0 0 0 0 0 0
0 0 0 0 0 0 0 0 0 0 0 0 0 0 0 0 0 0 0 0 0 0 0 0 0 0 0 0 0 0 0 0 0 0 0 0 0 0 0 0 0 0 0
0 0 0 0 0 0 0 0 0 0 0 0 0 0 0 0 0 0 0 0 0 0 0 0 0 0 0 0 0 0 0 0 0 0 0 0 0 0 0 0 0 0 0
0 0 0 0 0 0 0 0 0 0 0 0 0 0 0 0 0 0 0 0 0 0 0 0 0 0 0 0 0 0 0 0 0 0 0 0 0 0 0 0 0 0 0
0 0 0 0 0 0 0 0 0 0 0 0 0 0 0 0 0 0 0 0 0 0 0 0 0 0 0 0 0 0 0 0 0 0 0 0 0 0 0 0 0 0 0
0 0 0 0 0 0 0 0 0 0 0 0 0 0 0 0 0 0 0 0 0 0 0 0 0 0 0 0 0 0 0 0 0 0 0 0 0 0 0 0 0 0 0
0 0 0 0 0 0 0 0 0 0 0 0 0 0 0 0 0 0 0 0 0 0 0 0 0 0 0 0 0 0 0 0 0 0 0 0 0 0 0 0 0 0 0
0 0 0 0 0 0 0 0 0 0 0 0 0 0 0 0 0 0 0 0 0 0 0 0 0 0 0 0 0 0 0 0 0 0 0 0 0 0 0 0 0 0 0
0 0 0 0 0 0 0 0 0 0 0 0 0 0 0 0 0 0 0 0 0 0 0 0 0 0 0 0 0 0 0 0 0 0 0 0 0 0 0 0 0 0 0
0 0 0 0 0 0 0 0 0 0 0 0 0 0 0 0 0 0 0 0 0 0 0 0 0 0 0 0 0 0 0 0 0 0 0 0 0 0 0 0 0 0 0
0 0 0 0 0 0 0 0 0 0 0 0 0 0 0 0 0 0 0 0 0 0 0 0 0 0 0 0 0 0 0 0 0 0 0 0 0 0 0 0 0 0 0
0 0 0 0 0 0 0 0 0 0 0 0 0 0 0 0 0 0 0 0 0 0 0 0 0 0 0 0 0 0 0 0 0 0 0 0 0 0 0 0 0 0 0
0 0 0 0 0 0 0 0 0 0 0 0 0 0 0 0 0 0 0 0 0 0 0 0 0 0 0 0 0 0 0 0 0 0 0 0 0 0 0 0 0 0 0
0 0 0 0 0 0 0 0 0 0 0 0 0 0 0 0 0 0 0 0 0 0 0 0 0 0 0 0 0 0 0 0 0 0 0 0 0 0 0 0 0 0 0
Wind_Speed_500mb
91 99 104 106 103 94 91 89 90 83 79 77 73 67 65 63 62 60 59 57 56 54 56 54 50 47 46 44 43 41 47 48 60 68 61 63 64 66 68 67 65 56 50
70 87 96 100 106 102 95 89 84 80 80 77 71 68 67 65 62 58 55 57 53 50 47 47 48 46 46 42 44 48 43 44 48 59 59 62 72 73 68 64 61 55 49
74 81 86 93 99 103 97 87 81 80 74 72 72 71 69 65 61 56 55 51 49 47 47 45 46 45 49 40 45 49 48 46 48 56 64 68 69 58 58 52 50 49 46
68 79 85 87 89 94 93 88 87 80 75 75 72 69 65 63 56 53 51 51 52 51 50 48 47 47 48 52 53 51 47 53 57 57 61 61 45 45 46 46 46 43 42
73 78 83 84 85 87 90 91 87 81 76 73 70 67 63 56 55 52 50 49 47 47 45 44 47 47 48 50 51 46 49 52 51 48 37 39 45 44 44 43 39 36 32
79 85 81 80 81 86 89 89 84 78 76 73 68 63 59 55 52 49 46 46 45 47 44 44 45 46 46 46 42 40 42 40 40 36 34 37 40 37 36 33 30 29 29
76 81 83 82 86 86 86 82 81 80 74 69 63 59 57 53 50 47 46 46 46 47 44 43 45 44 42 39 38 34 34 36 33 34 33 34 33 28 26 26 24 24 26
77 83 86 89 87 86 85 84 82 78 72 66 62 60 57 54 52 52 50 47 44 42 40 39 41 39 34 29 31 30 32 33 30 28 26 26 21 20 21 22 19 19 21
78 86 85 80 81 86 88 87 84 78 73 68 63 61 59 58 58 55 50 45 41 40 38 37 33 31 28 26 24 22 21 23 25 28 25 22 18 14 17 17 13 10 13
93 87 92 89 89 93 92 87 83 78 71 67 64 62 61 60 57 53 50 45 42 40 37 34 31 32 29 29 27 25 23 20 22 21 20 17 14 11 13 14 10 11 9
92 91 94 94 95 95 93 89 84 78 73 68 66 64 63 60 57 55 51 48 44 39 35 34 34 36 33 30 29 27 24 22 19 18 17 13 11 11 11 7 4 4 6
95 85 92 100 101 99 94 90 85 80 75 71 68 66 63 60 58 54 53 48 42 38 36 33 32 30 30 29 28 27 25 22 20 19 16 14 12 10 8 5 4 9 16
101 97 93 108 109 105 99 97 90 83 77 73 71 70 67 63 58 54 51 50 48 43 38 35 33 28 27 26 24 23 22 22 19 19 18 16 14 12 10 9 13 16 22
89 92 98 112 117 111 105 97 90 86 81 78 76 74 69 65 61 57 54 49 48 46 42 39 36 30 29 26 24 24 20 19 16 16 15 15 14 14 14 19 26 32 32
85 89 89 108 118 114 108 102 94 88 84 82 82 75 75 72 65 58 53 50 49 45 43 42 39 37 34 31 27 21 17 15 13 12 11 12 13 17 22 29 32 35 38
87 88 89 107 117 116 112 104 97 87 80 74 73 72 70 62 58 56 54 51 47 46 46 46 43 39 34 29 25 22 20 18 15 14 13 14 16 19 22 25 30 33 35
88 89 93 107 118 119 114 108 99 86 75 68 68 65 64 57 60 61 59 55 51 49 50 48 44 39 35 30 27 26 22 18 13 11 10 9 11 15 19 23 28 32 35
81 92 97 109 122 126 122 112 102 93 89 86 84 76 71 65 66 63 60 60 61 55 51 49 45 41 37 35 32 26 22 18 14 9 7 7 10 15 21 26 30 35 38
74 90 97 104 115 122 118 110 101 92 82 88 84 77 70 68 64 65 67 67 65 61 58 52 47 44 42 37 32 28 23 17 12 7 5 7 12 17 22 27 31 36 41
64 86 94 96 104 110 108 106 103 97 87 97 91 87 81 74 78 79 77 71 63 59 57 52 49 45 41 37 34 28 22 16 11 7 5 9 13 18 24 29 33 37 40
59 76 85 93 97 99 105 106 105 95 91 99 93 89 87 92 90 89 79 72 64 62 58 54 50 47 44 40 34 28 22 17 12 8 8 12 17 23 28 32 36 39 41
47 64 77 80 86 93 102 100 101 89 102 95 96 90 88 89 90 88 79 72 65 59 56 54 52 48 43 38 33 27 23 18 14 13 14 18 23 27 31 34 37 38 39
55 54 65 74 78 88 93 95 96 99 97 97 99 92 94 102 97 86 75 68 65 63 59 56 51 48 43 37 32 27 22 19 17 18 20 23 27 31 32 34 36 36 36
32 53 61 72 74 77 79 87 87 86 91 99 92 92 102 102 88 81 73 68 66 63 60 55 51 46 41 37 32 28 24 23 22 22 25 28 31 32 33 35 35 35 35
32 43 55 63 66 71 76 83 90 93 89 81 85 93 95 92 83 76 71 68 66 62 59 54 51 47 41 36 32 30 28 26 27 28 29 31 33 34 35 35 35 34 33
22 34 44 53 62 70 78 84 79 74 74 79 86 90 90 81 75 72 71 68 65 60 55 54 49 44 40 36 35 33 31 30 31 33 32 33 34 36 36 35 35 33 32
Wind_Direction_500mb
245 245 246 246 244 243 244 244 241 243 244 244 242 242 245 249 250 249 252 255 255 256 259 259 262 264 269 278 280 279 288 286 289 297 297 306 313 313 310 304 309 310 312
252 246 244 246 244 242 242 240 240 241 242 243 241 242 245 246 247 249 250 251 251 252 257 257 259 265 269 265 280 283 282 282 285 290 299 295 305 310 309 306 307 311 309
257 247 244 243 242 240 239 237 236 239 238 238 238 239 240 242 243 246 246 248 246 245 248 248 247 247 258 256 250 267 267 277 277 281 289 294 303 310 311 315 314 314 314
253 246 243 241 240 239 236 232 234 236 236 237 236 236 237 238 240 241 244 245 247 248 247 254 256 263 264 265 261 260 262 262 272 276 283 289 296 306 309 309 310 310 309
249 244 243 242 240 236 229 229 231 234 234 232 230 229 232 234 237 240 242 244 248 252 255 259 263 268 271 271 268 266 262 265 269 274 281 291 289 296 295 296 300 305 310
258 253 246 241 233 226 227 226 229 228 225 225 223 224 228 232 235 238 241 244 247 249 251 254 259 261 262 263 264 266 262 260 266 266 269 274 283 287 290 298 306 308 308
265 253 245 234 226 225 224 227 225 222 220 220 223 226 229 232 235 238 241 245 247 249 250 253 255 254 255 255 256 254 255 261 265 269 276 283 285 281 294 300 305 306 306
268 251 242 236 231 230 225 220 218 217 218 221 223 226 229 232 235 237 239 241 242 246 250 249 249 247 247 246 250 257 261 257 260 261 267 275 275 280 289 294 308 316 311
270 252 244 237 233 227 222 218 214 214 217 219 223 228 231 232 235 236 237 238 241 240 240 240 240 240 237 235 240 253 256 250 250 255 262 257 261 265 285 294 306 308 306
268 257 244 238 233 228 220 214 216 218 219 223 226 228 230 230 231 233 235 236 234 234 237 237 236 235 231 231 234 245 246 239 234 236 241 257 271 283 299 307 317 313 311
268 259 245 238 230 221 217 217 218 219 220 222 225 227 228 228 228 231 234 232 230 233 234 232 229 230 230 232 234 231 233 234 239 241 244 242 260 276 278 290 318 351 352
265 262 245 236 227 220 219 220 218 220 221 222 223 224 223 223 226 225 224 224 223 226 227 221 221 223 230 228 227 229 231 235 224 225 223 236 240 229 222 238 305 324 316
265 252 246 235 226 221 221 219 219 219 221 223 223 222 220 220 218 216 215 212 213 211 214 215 220 227 231 229 220 217 214 211 214 219 224 224 222 226 228 263 293 299 297
260 250 245 230 222 220 219 220 221 221 222 222 223 221 219 216 211 210 208 204 199 200 206 214 216 213 209 210 201 204 209 216 215 222 222 224 232 227 257 281 294 300 301
253 249 242 228 221 218 219 219 222 228 231 231 226 225 218 215 215 211 207 202 201 204 206 207 205 202 203 200 204 205 206 208 209 210 215 232 238 253 277 292 303 310 315
245 243 237 225 218 217 216 215 218 223 226 226 229 228 219 220 214 202 198 199 202 203 202 204 200 198 201 198 194 191 196 200 207 218 232 246 264 280 295 307 313 315 314
240 240 233 223 218 216 215 215 214 212 215 221 220 220 219 211 205 205 202 197 198 200 203 201 199 197 192 191 191 192 194 194 200 211 227 251 276 295 304 313 314 314 315
239 238 232 225 219 216 215 213 213 210 206 206 211 209 205 201 208 205 200 196 192 194 201 199 196 194 192 190 190 189 187 179 178 196 228 270 305 322 325 325 322 319 315
236 234 232 227 221 217 213 211 208 208 210 214 203 199 200 200 205 205 201 199 194 193 195 197 198 195 192 187 181 179 178 178 181 199 251 309 323 327 325 321 320 317 315
235 234 229 224 221 218 212 208 204 203 208 211 206 199 192 196 195 196 196 194 194 198 198 197 193 188 181 180 180 180 180 180 188 214 271 306 319 321 319 318 317 315 314
227 226 227 224 218 217 212 205 206 206 210 209 206 204 205 200 196 196 195 194 197 199 197 190 186 183 182 182 183 182 183 190 198 226 271 299 308 311 313 315 315 314 314
235 226 222 221 218 212 212 208 208 203 205 205 205 205 201 198 199 200 197 195 196 195 191 189 185 183 184 185 187 189 191 198 217 245 271 290 300 305 308 312 312 311 314
216 222 219 216 215 212 210 208 206 204 204 204 207 202 199 200 204 204 198 196 192 191 190 188 186 186 187 190 193 198 205 218 238 259 277 290 297 303 308 308 309 311 314
225 222 218 215 211 210 208 208 205 204 204 205 202 201 203 205 206 202 198 193 190 190 189 189 189 191 194 196 201 210 221 235 250 265 279 290 296 299 302 305 307 311 311
237 229 224 219 215 212 209 209 208 208 206 203 205 206 206 205 202 197 193 192 191 191 192 192 195 199 201 205 212 223 233 245 257 269 281 289 294 298 299 301 304 305 303
236 231 228 223 218 215 214 214 212 208 205 205 207 206 205 200 195 192 192 192 192 193 197 200 202 207 211 217 225 233 241 252 264 274 284 289 292 294 296 298 298 297 295
Wind_Speed_850mb
91 99 104 106 103 94 91 89 90 83 79 77 73 67 65 63 62 60 59 57 56 54 56 54 50 47 46 44 43 41 47 48 60 68 61 63 64 66 68 67 65 56 50
70 87 96 100 106 102 95 89 84 80 80 77 71 68 67 65 62 58 55 57 53 50 47 47 48 46 46 42 44 48 43 44 48 59 59 62 72 73 68 64 61 55 49
74 81 86 93 99 103 97 87 81 80 74 72 72 71 69 65 61 56 55 51 49 47 47 45 46 45 49 40 45 49 48 46 48 56 64 68 69 58 58 52 50 49 46
68 79 85 87 89 94 93 88 87 80 75 75 72 69 65 63 56 53 51 51 52 51 50 48 47 47 48 52 53 51 47 53 57 57 61 61 45 45 46 46 46 43 42
73 78 83 84 85 87 90 91 87 81 76 73 70 67 63 56 55 52 50 49 47 47 45 44 47 47 48 50 51 46 49 52 51 48 37 39 45 44 44 43 39 36 32
79 85 81 80 81 86 89 89 84 78 76 73 68 63 59 55 52 49 46 46 45 47 44 44 45 46 46 46 42 40 42 40 40 36 34 37 40 37 36 33 30 29 29
76 81 83 82 86 86 86 82 81 80 74 69 63 59 57 53 50 47 46 46 46 47 44 43 45 44 42 39 38 34 34 36 33 34 33 34 33 28 26 26 24 24 26
77 83 86 89 87 86 85 84 82 78 72 66 62 60 57 54 52 52 50 47 44 42 40 39 41 39 34 29 31 30 32 33 30 28 26 26 21 20 21 22 19 19 21
78 86 85 80 81 86 88 87 84 78 73 68 63 61 59 58 58 55 50 45 41 40 38 37 33 31 28 26 24 22 21 23 25 28 25 22 18 14 17 17 13 10 13
93 87 92 89 89 93 92 87 83 78 71 67 64 62 61 60 57 53 50 45 42 40 37 34 31 32 29 29 27 25 23 20 22 21 20 17 14 11 13 14 10 11 9
92 91 94 94 95 95 93 89 84 78 73 68 66 64 63 60 57 55 51 48 44 39 35 34 34 36 33 30 29 27 24 22 19 18 17 13 11 11 11 7 4 4 6
95 85 92 100 101 99 94 90 85 80 75 71 68 66 63 60 58 54 53 48 42 38 36 33 32 30 30 29 28 27 25 22 20 19 16 14 12 10 8 5 4 9 16
101 97 93 108 109 105 99 97 90 83 77 73 71 70 67 63 58 54 51 50 48 43 38 35 33 28 27 26 24 23 22 22 19 19 18 16 14 12 10 9 13 16 22
89 92 98 112 117 111 105 97 90 86 81 78 76 74 69 65 61 57 54 49 48 46 42 39 36 30 29 26 24 24 20 19 16 16 15 15 14 14 14 19 26 32 32
85 89 89 108 118 114 108 102 94 88 84 82 82 75 75 72 65 58 53 50 49 45 43 42 39 37 34 31 27 21 17 15 13 12 11 12 13 17 22 29 32 35 38
87 88 89 107 117 116 112 104 97 87 80 74 73 72 70 62 58 56 54 51 47 46 46 46 43 39 34 29 25 22 20 18 15 14 13 14 16 19 22 25 30 33 35
88 89 93 107 118 119 114 108 99 86 75 68 68 65 64 57 60 61 59 55 51 49 50 48 44 39 35 30 27 26 22 18 13 11 10 9 11 15 19 23 28 32 35
81 92 97 109 122 126 122 112 102 93 89 86 84 76 71 65 66 63 60 60 61 55 51 49 45 41 37 35 32 26 22 18 14 9 7 7 10 15 21 26 30 35 38
74 90 97 104 115 122 118 110 101 92 82 88 84 77 70 68 64 65 67 67 65 61 58 52 47 44 42 37 32 28 23 17 12 7 5 7 12 17 22 27 31 36 41
64 86 94 96 104 110 108 106 103 97 87 97 91 87 81 74 78 79 77 71 63 59 57 52 49 45 41 37 34 28 22 16 11 7 5 9 13 18 24 29 33 37 40
59 76 85 93 97 99 105 106 105 95 91 99 93 89 87 92 90 89 79 72 64 62 58 54 50 47 44 40 34 28 22 17 12 8 8 12 17 23 28 32 36 39 41
47 64 77 80 86 93 102 100 101 89 102 95 96 90 88 89 90 88 79 72 65 59 56 54 52 48 43 38 33 27 23 18 14 13 14 18 23 27 31 34 37 38 39
55 54 65 74 78 88 93 95 96 99 97 97 99 92 94 102 97 86 75 68 65 63 59 56 51 48 43 37 32 27 22 19 17 18 20 23 27 31 32 34 36 36 36
32 53 61 72 74 77 79 87 87 86 91 99 92 92 102 102 88 81 73 68 66 63 60 55 51 46 41 37 32 28 24 23 22 22 25 28 31 32 33 35 35 35 35
32 43 55 63 66 71 76 83 90 93 89 81 85 93 95 92 83 76 71 68 66 62 59 54 51 47 41 36 32 30 28 26 27 28 29 31 33 34 35 35 35 34 33
22 34 44 53 62 70 78 84 79 74 74 79 86 90 90 81 75 72 71 68 65 60 55 54 49 44 40 36 35 33 31 30 31 33 32 33 34 36 36 35 35 33 32
Wind_Direction_850mb
245 245 246 246 244 243 244 244 241 243 244 244 242 242 245 249 250 249 252 255 255 256 259 259 262 264 269 278 280 279 288 286 289 297 297 306 313 313 310 304 309 310 312
252 246 244 246 244 242 242 240 240 241 242 243 241 242 245 246 247 249 250 251 251 252 257 257 259 265 269 265 280 283 282 282 285 290 299 295 305 310 309 306 307 311 309
257 247 244 243 242 240 239 237 236 239 238 238 238 239 240 242 243 246 246 248 246 245 248 248 247 247 258 256 250 267 267 277 277 281 289 294 303 310 311 315 314 314 314
253 246 243 241 240 239 236 232 234 236 236 237 236 236 237 238 240 241 244 245 247 248 247 254 256 263 264 265 261 260 262 262 272 276 283 289 296 306 309 309 310 310 309
249 244 243 242 240 236 229 229 231 234 234 232 230 229 232 234 237 240 242 244 248 252 255 259 263 268 271 271 268 266 262 265 269 274 281 291 289 296 295 296 300 305 310
258 253 246 241 233 226 227 226 229 228 225 225 223 224 228 232 235 238 241 244 247 249 251 254 259 261 262 263 264 266 262 260 266 266 269 274 283 287 290 298 306 308 308
265 253 245 234 226 225 224 227 225 222 220 220 223 226 229 232 235 238 241 245 247 249 250 253 255 254 255 255 256 254 255 261 265 269 276 283 285 281 294 300 305 306 306
268 251 242 236 231 230 225 220 218 217 218 221 223 226 229 232 235 237 239 241 242 246 250 249 249 247 247 246 250 257 261 257 260 261 267 275 275 280 289 294 308 316 311
270 252 244 237 233 227 222 218 214 214 217 219 223 228 231 232 235 236 237 238 241 240 240 240 240 240 237 235 240 253 256 250 250 255 262 257 261 265 285 294 306 308 306
268 257 244 238 233 228 220 214 216 218 219 223 226 228 230 230 231 233 235 236 234 234 237 237 236 235 231 231 234 245 246 239 234 236 241 257 271 283 299 307 317 313 311
268 259 245 238 230 221 217 217 218 219 220 222 225 227 228 228 228 231 234 232 230 233 234 232 229 230 230 232 234 231 233 234 239 241 244 242 260 276 278 290 318 351 352
265 262 245 236 227 220 219 220 218 220 221 222 223 224 223 223 226 225 224 224 223 226 227 221 221 223 230 228 227 229 231 235 224 225 223 236 240 229 222 238 305 324 316
265 252 246 235 226 221 221 219 219 219 221 223 223 222 220 220 218 216 215 212 213 211 214 215 220 227 231 229 220 217 214 211 214 219 224 224 222 226 228 263 293 299 297
260 250 245 230 222 220 219 220 221 221 222 222 223 221 219 216 211 210 208 204 199 200 206 214 216 213 209 210 201 204 209 216 215 222 222 224 232 227 257 281 294 300 301
253 249 242 228 221 218 219 219 222 228 231 231 226 225 218 215 215 211 207 202 201 204 206 207 205 202 203 200 204 205 206 208 209 210 215 232 238 253 277 292 303 310 315
245 243 237 225 218 217 216 215 218 223 226 226 229 228 219 220 214 202 198 199 202 203 202 204 200 198 201 198 194 191 196 200 207 218 232 246 264 280 295 307 313 315 314
240 240 233 223 218 216 215 215 214 212 215 221 220 220 219 211 205 205 202 197 198 200 203 201 199 197 192 191 191 192 194 194 200 211 227 251 276 295 304 313 314 314 315
239 238 232 225 219 216 215 213 213 210 206 206 211 209 205 201 208 205 200 196 192 194 201 199 196 194 192 190 190 189 187 179 178 196 228 270 305 322 325 325 322 319 315
236 234 232 227 221 217 213 211 208 208 210 214 203 199 200 200 205 205 201 199 194 193 195 197 198 195 192 187 181 179 178 178 181 199 251 309 323 327 325 321 320 317 315
235 234 229 224 221 218 212 208 204 203 208 211 206 199 192 196 195 196 196 194 194 198 198 197 193 188 181 180 180 180 180 180 188 214 271 306 319 321 319 318 317 315 314
227 226 227 224 218 217 212 205 206 206 210 209 206 204 205 200 196 196 195 194 197 199 197 190 186 183 182 182 183 182 183 190 198 226 271 299 308 311 313 315 315 314 314
235 226 222 221 218 212 212 208 208 203 205 205 205 205 201 198 199 200 197 195 196 195 191 189 185 183 184 185 187 189 191 198 217 245 271 290 300 305 308 312 312 311 314
216 222 219 216 215 212 210 208 206 204 204 204 207 202 199 200 204 204 198 196 192 191 190 188 186 186 187 190 193 198 205 218 238 259 277 290 297 303 308 308 309 311 314
225 222 218 215 211 210 208 208 205 204 204 205 202 201 203 205 206 202 198 193 190 190 189 189 189 191 194 196 201 210 221 235 250 265 279 290 296 299 302 305 307 311 311
237 229 224 219 215 212 209 209 208 208 206 203 205 206 206 205 202 197 193 192 191 191 192 192 195 199 201 205 212 223 233 245 257 269 281 289 294 298 299 301 304 305 303
236 231 228 223 218 215 214 214 212 208 205 205 207 206 205 200 195 192 192 192 192 193 197 200 202 207 211 217 225 233 241 252 264 274 284 289 292 294 296 298 298 297 295